Time,TemperatureF,DewpointF,PressureIn,WindDirection,WindDirectionDegrees,WindSpeedMPH,WindSpeedGustMPH,Humidity,HourlyPrecipIn,Conditions,Clouds,dailyrainin,SoftwareType,DateUTC
2013-02-21 00:02:00,22.0,9.0,29.89,NW,313,1.0,5.0,56,0.00,,,0.00,,2013-02-21 05:02:00,
2013-02-21 00:12:00,22.0,9.0,29.89,NW,313,1.0,5.0,56,0.00,,,0.00,,2013-02-21 05:12:00,
2013-02-21 00:22:00,22.0,9.0,29.90,NNW,332,3.0,9.0,57,0.00,,,0.00,,2013-02-21 05:22:00,
2013-02-21 00:35:00,22.0,9.0,29.90,WNW,283,3.0,8.0,57,0.00,,,0.00,,2013-02-21 05:35:00,
2013-02-21 00:44:00,22.0,9.0,29.90,WNW,283,3.0,8.0,57,0.00,,,0.00,,2013-02-21 05:44:00,
2013-02-21 00:53:00,22.0,9.0,29.90,WSW,251,0.0,7.0,57,0.00,,,0.00,,2013-02-21 05:53:00,
2013-02-21 01:01:00,23.0,10.0,29.90,West,277,5.0,13.0,57,0.00,,,0.00,,2013-02-21 06:01:00,
2013-02-21 01:11:00,23.0,10.0,29.90,West,277,5.0,13.0,57,0.00,,,0.00,,2013-02-21 06:11:00,
2013-02-21 01:21:00,22.0,9.0,29.90,West,275,1.0,8.0,57,0.00,,,0.00,,2013-02-21 06:21:00,
2013-02-21 01:31:00,22.0,9.0,29.90,WSW,249,1.0,8.0,57,0.00,,,0.00,,2013-02-21 06:31:00,
2013-02-21 01:41:00,22.0,9.0,29.90,WSW,249,1.0,8.0,57,0.00,,,0.00,,2013-02-21 06:41:00,
2013-02-21 01:51:00,22.0,10.0,29.90,SW,233,0.0,7.0,58,0.00,,,0.00,,2013-02-21 06:51:00,
2013-02-21 02:01:00,22.0,10.0,29.89,SW,216,1.0,9.0,58,0.00,,,0.00,,2013-02-21 07:01:00,
2013-02-21 02:11:00,22.0,10.0,29.89,West,265,1.0,8.0,58,0.00,,,0.00,,2013-02-21 07:11:00,
2013-02-21 02:21:00,22.0,10.0,29.89,West,265,1.0,8.0,58,0.00,,,0.00,,2013-02-21 07:21:00,
2013-02-21 02:32:00,22.0,10.0,29.89,West,262,2.0,8.0,59,0.00,,,0.00,,2013-02-21 07:32:00,
2013-02-21 02:42:00,22.0,10.0,29.89,WNW,287,2.0,9.0,59,0.00,,,0.00,,2013-02-21 07:42:00,
2013-02-21 02:52:00,22.0,10.0,29.89,WNW,287,2.0,9.0,59,0.00,,,0.00,,2013-02-21 07:52:00,
2013-02-21 03:01:00,22.0,10.0,29.89,NNW,339,1.0,5.0,59,0.00,,,0.00,,2013-02-21 08:01:00,
2013-02-21 03:11:00,22.0,10.0,29.89,West,274,3.0,12.0,59,0.00,,,0.00,,2013-02-21 08:11:00,
2013-02-21 03:21:00,22.0,10.0,29.89,West,274,3.0,12.0,59,0.00,,,0.00,,2013-02-21 08:21:00,
2013-02-21 03:32:00,22.0,10.0,29.89,WNW,294,0.0,5.0,59,0.00,,,0.00,,2013-02-21 08:32:00,
2013-02-21 03:42:00,22.0,10.0,29.89,WNW,294,0.0,5.0,59,0.00,,,0.00,,2013-02-21 08:42:00,
2013-02-21 03:52:00,22.0,10.0,29.89,West,261,2.0,7.0,60,0.00,,,0.00,,2013-02-21 08:52:00,
2013-02-21 04:02:00,22.0,10.0,29.89,West,266,1.0,8.0,60,0.00,,,0.00,,2013-02-21 09:02:00,
2013-02-21 04:11:00,22.0,10.0,29.89,West,266,1.0,8.0,60,0.00,,,0.00,,2013-02-21 09:11:00,
2013-02-21 04:22:00,22.0,10.0,29.89,West,264,1.0,6.0,60,0.00,,,0.00,,2013-02-21 09:22:00,
2013-02-21 04:32:00,22.0,11.0,29.90,West,278,3.0,9.0,61,0.00,,,0.00,,2013-02-21 09:32:00,
2013-02-21 04:42:00,22.0,10.0,29.90,WNW,299,1.0,5.0,60,0.00,,,0.00,,2013-02-21 09:42:00,
2013-02-21 04:51:00,22.0,10.0,29.90,WNW,299,1.0,5.0,60,0.00,,,0.00,,2013-02-21 09:51:00,
2013-02-21 05:01:00,23.0,11.0,29.90,WNW,302,2.0,8.0,60,0.00,,,0.00,,2013-02-21 10:01:00,
2013-02-21 05:11:00,23.0,11.0,29.90,WNW,302,2.0,8.0,60,0.00,,,0.00,,2013-02-21 10:11:00,
2013-02-21 05:21:00,23.0,11.0,29.91,West,269,2.0,7.0,60,0.00,,,0.00,,2013-02-21 10:21:00,
2013-02-21 05:31:00,23.0,11.0,29.91,West,263,4.0,11.0,59,0.00,,,0.00,,2013-02-21 10:31:00,
2013-02-21 05:41:00,23.0,11.0,29.91,West,263,4.0,11.0,59,0.00,,,0.00,,2013-02-21 10:41:00,
2013-02-21 05:51:00,22.0,10.0,29.92,North,351,1.0,12.0,58,0.00,,,0.00,,2013-02-21 10:51:00,
2013-02-21 06:01:00,22.0,10.0,29.92,WNW,289,2.0,6.0,58,0.00,,,0.00,,2013-02-21 11:01:00,
2013-02-21 06:11:00,22.0,10.0,29.92,WNW,289,2.0,6.0,58,0.00,,,0.00,,2013-02-21 11:11:00,
2013-02-21 06:21:00,22.0,9.0,29.92,WNW,297,3.0,9.0,57,0.00,,,0.00,,2013-02-21 11:21:00,
2013-02-21 06:31:00,22.0,9.0,29.92,West,266,2.0,9.0,57,0.00,,,0.00,,2013-02-21 11:31:00,
2013-02-21 06:41:00,22.0,9.0,29.92,West,266,2.0,9.0,57,0.00,,,0.00,,2013-02-21 11:41:00,
2013-02-21 06:51:00,22.0,10.0,29.91,WNW,285,1.0,9.0,58,0.00,,,0.00,,2013-02-21 11:51:00,
2013-02-21 07:01:00,22.0,9.0,29.91,West,274,4.0,13.0,57,0.00,,,0.00,,2013-02-21 12:01:00,
2013-02-21 07:11:00,22.0,9.0,29.91,West,274,4.0,13.0,57,0.00,,,0.00,,2013-02-21 12:11:00,
2013-02-21 07:21:00,22.0,9.0,29.91,WSW,256,3.0,9.0,57,0.00,,,0.00,,2013-02-21 12:21:00,
2013-02-21 07:32:00,23.0,10.0,29.91,NW,306,1.0,5.0,57,0.00,,,0.00,,2013-02-21 12:32:00,
2013-02-21 07:42:00,23.0,10.0,29.92,West,278,3.0,7.0,56,0.00,,,0.00,,2013-02-21 12:42:00,
2013-02-21 07:52:00,23.0,10.0,29.92,West,278,3.0,7.0,56,0.00,,,0.00,,2013-02-21 12:52:00,
2013-02-21 08:02:00,24.0,9.0,29.91,WSW,256,3.0,9.0,53,0.00,,,0.00,,2013-02-21 13:02:00,
2013-02-21 08:12:00,24.0,9.0,29.91,WSW,256,3.0,9.0,53,0.00,,,0.00,,2013-02-21 13:12:00,
2013-02-21 08:22:00,25.0,11.0,29.92,WNW,289,3.0,11.0,54,0.00,,,0.00,,2013-02-21 13:22:00,
2013-02-21 08:32:00,25.0,10.0,29.92,West,279,3.0,10.0,52,0.00,,,0.00,,2013-02-21 13:32:00,
2013-02-21 08:42:00,25.0,10.0,29.92,West,279,3.0,10.0,52,0.00,,,0.00,,2013-02-21 13:42:00,
2013-02-21 08:51:00,25.0,10.0,29.93,NW,314,1.0,12.0,52,0.00,,,0.00,,2013-02-21 13:51:00,
2013-02-21 09:02:00,26.0,11.0,29.93,West,259,3.0,11.0,52,0.00,,,0.00,,2013-02-21 14:02:00,
2013-02-21 09:11:00,26.0,11.0,29.93,West,259,3.0,11.0,52,0.00,,,0.00,,2013-02-21 14:11:00,
2013-02-21 09:21:00,27.0,10.0,29.92,West,277,6.0,17.0,49,0.00,,,0.00,,2013-02-21 14:21:00,
2013-02-21 09:32:00,27.0,10.0,29.92,WSW,258,2.0,8.0,49,0.00,,,0.00,,2013-02-21 14:32:00,
2013-02-21 09:42:00,28.0,10.0,29.92,WSW,252,1.0,12.0,47,0.00,,,0.00,,2013-02-21 14:42:00,
2013-02-21 09:52:00,28.0,10.0,29.92,WSW,252,1.0,12.0,47,0.00,,,0.00,,2013-02-21 14:52:00,
2013-02-21 10:02:00,28.0,10.0,29.91,SW,234,3.0,8.0,47,0.00,,,0.00,,2013-02-21 15:02:00,
2013-02-21 10:12:00,28.0,10.0,29.91,SW,234,3.0,8.0,47,0.00,,,0.00,,2013-02-21 15:12:00,
2013-02-21 10:21:00,29.0,12.0,29.92,NNE,26,1.0,9.0,49,0.00,,,0.00,,2013-02-21 15:21:00,
2013-02-21 10:32:00,30.0,12.0,29.93,WNW,282,3.0,10.0,46,0.00,,,0.00,,2013-02-21 15:32:00,
2013-02-21 10:42:00,30.0,12.0,29.93,WNW,282,3.0,10.0,46,0.00,,,0.00,,2013-02-21 15:42:00,
2013-02-21 10:51:00,30.0,12.0,29.93,WNW,282,3.0,10.0,46,0.00,,,0.00,,2013-02-21 15:51:00,
2013-02-21 11:01:00,31.0,12.0,29.92,WNW,289,4.0,9.0,45,0.00,,,0.00,,2013-02-21 16:01:00,
2013-02-21 11:12:00,31.0,13.0,29.93,WNW,284,3.0,17.0,47,0.00,,,0.00,,2013-02-21 16:12:00,
2013-02-21 11:22:00,31.0,13.0,29.93,WNW,284,3.0,17.0,47,0.00,,,0.00,,2013-02-21 16:22:00,
2013-02-21 11:32:00,32.0,14.0,29.93,WNW,300,2.0,12.0,46,0.00,,,0.00,,2013-02-21 16:32:00,
2013-02-21 11:42:00,31.0,12.0,29.94,West,268,6.0,13.0,44,0.00,,,0.00,,2013-02-21 16:42:00,
2013-02-21 11:52:00,31.0,12.0,29.94,West,268,6.0,13.0,44,0.00,,,0.00,,2013-02-21 16:52:00,
2013-02-21 12:01:00,32.0,13.0,29.94,WNW,286,2.0,9.0,44,0.00,,,0.00,,2013-02-21 17:01:00,
2013-02-21 12:11:00,32.0,12.0,29.93,WNW,285,3.0,10.0,42,0.00,,,0.00,,2013-02-21 17:11:00,
2013-02-21 12:21:00,32.0,12.0,29.93,WNW,285,3.0,10.0,42,0.00,,,0.00,,2013-02-21 17:21:00,
2013-02-21 12:32:00,32.0,12.0,29.93,West,272,5.0,16.0,43,0.00,,,0.00,,2013-02-21 17:32:00,
2013-02-21 12:42:00,32.0,12.0,29.93,West,272,5.0,16.0,43,0.00,,,0.00,,2013-02-21 17:42:00,
2013-02-21 12:52:00,31.0,11.0,29.92,NW,319,2.0,12.0,43,0.00,,,0.00,,2013-02-21 17:52:00,
2013-02-21 13:02:00,32.0,13.0,29.92,West,259,3.0,11.0,44,0.00,,,0.00,,2013-02-21 18:02:00,
2013-02-21 13:12:00,32.0,13.0,29.92,West,259,3.0,11.0,44,0.00,,,0.00,,2013-02-21 18:12:00,
2013-02-21 13:22:00,32.0,13.0,29.92,West,259,3.0,11.0,44,0.00,,,0.00,,2013-02-21 18:22:00,
2013-02-21 13:32:00,31.0,12.0,29.92,WNW,289,4.0,10.0,44,0.00,,,0.00,,2013-02-21 18:32:00,
2013-02-21 13:42:00,31.0,12.0,29.92,WNW,289,4.0,10.0,44,0.00,,,0.00,,2013-02-21 18:42:00,
2013-02-21 13:51:00,32.0,13.0,29.92,NNW,332,2.0,10.0,45,0.00,,,0.00,,2013-02-21 18:51:00,
2013-02-21 14:01:00,32.0,12.0,29.92,WNW,290,3.0,7.0,43,0.00,,,0.00,,2013-02-21 19:01:00,
2013-02-21 14:12:00,32.0,12.0,29.92,WNW,290,3.0,7.0,43,0.00,,,0.00,,2013-02-21 19:12:00,
2013-02-21 14:21:00,32.0,12.0,29.92,NNW,342,2.0,10.0,42,0.00,,,0.00,,2013-02-21 19:21:00,
2013-02-21 14:32:00,32.0,12.0,29.93,WNW,295,3.0,6.0,43,0.00,,,0.00,,2013-02-21 19:32:00,
2013-02-21 14:42:00,32.0,12.0,29.93,WNW,295,3.0,6.0,43,0.00,,,0.00,,2013-02-21 19:42:00,
2013-02-21 14:52:00,31.0,11.0,29.94,West,259,2.0,8.0,43,0.00,,,0.00,,2013-02-21 19:52:00,
2013-02-21 15:01:00,31.0,12.0,29.94,WNW,283,4.0,14.0,45,0.00,,,0.00,,2013-02-21 20:01:00,
2013-02-21 15:11:00,32.0,13.0,29.94,WNW,284,0.0,7.0,45,0.00,,,0.00,,2013-02-21 20:11:00,
2013-02-21 15:21:00,32.0,13.0,29.94,WNW,284,0.0,7.0,45,0.00,,,0.00,,2013-02-21 20:21:00,
2013-02-21 15:32:00,31.0,13.0,29.95,NNE,27,2.0,7.0,46,0.00,,,0.00,,2013-02-21 20:32:00,
2013-02-21 15:42:00,31.0,13.0,29.95,NNE,27,2.0,7.0,46,0.00,,,0.00,,2013-02-21 20:42:00,
2013-02-21 15:53:00,31.0,13.0,29.96,West,281,2.0,8.0,46,0.00,,,0.00,,2013-02-21 20:53:00,
2013-02-21 16:02:00,30.0,12.0,29.97,WNW,288,2.0,12.0,46,0.00,,,0.00,,2013-02-21 21:02:00,
2013-02-21 16:12:00,30.0,12.0,29.97,NE,47,2.0,12.0,46,0.00,,,0.00,,2013-02-21 21:12:00,
2013-02-21 16:21:00,30.0,12.0,29.97,NE,47,2.0,12.0,46,0.00,,,0.00,,2013-02-21 21:21:00,
2013-02-21 16:32:00,30.0,13.0,29.97,WNW,297,2.0,6.0,48,0.00,,,0.00,,2013-02-21 21:32:00,
2013-02-21 16:42:00,29.0,12.0,29.99,WNW,288,3.0,11.0,48,0.00,,,0.00,,2013-02-21 21:42:00,
2013-02-21 16:52:00,29.0,12.0,29.99,WNW,288,3.0,11.0,48,0.00,,,0.00,,2013-02-21 21:52:00,
2013-02-21 17:01:00,29.0,12.0,30.01,NNW,341,2.0,7.0,49,0.00,,,0.00,,2013-02-21 22:01:00,
2013-02-21 17:11:00,29.0,12.0,30.01,NNW,341,2.0,7.0,49,0.00,,,0.00,,2013-02-21 22:11:00,
2013-02-21 17:21:00,28.0,12.0,30.02,West,278,1.0,6.0,50,0.00,,,0.00,,2013-02-21 22:21:00,
2013-02-21 17:32:00,28.0,13.0,30.02,NNE,22,1.0,8.0,52,0.00,,,0.00,,2013-02-21 22:32:00,
2013-02-21 17:42:00,27.0,12.0,30.03,WNW,299,1.0,4.0,52,0.00,,,0.00,,2013-02-21 22:42:00,
2013-02-21 17:52:00,27.0,12.0,30.03,WNW,299,1.0,4.0,52,0.00,,,0.00,,2013-02-21 22:52:00,
2013-02-21 18:01:00,27.0,12.0,30.03,NW,314,2.0,6.0,53,0.00,,,0.00,,2013-02-21 23:01:00,
2013-02-21 18:11:00,27.0,12.0,30.03,NW,314,2.0,6.0,53,0.00,,,0.00,,2013-02-21 23:11:00,
2013-02-21 18:21:00,26.0,12.0,30.06,North,355,1.0,7.0,54,0.00,,,0.00,,2013-02-21 23:21:00,
2013-02-21 18:32:00,26.0,12.0,30.05,WSW,250,1.0,4.0,55,0.00,,,0.00,,2013-02-21 23:32:00,
2013-02-21 18:42:00,26.0,12.0,30.05,WSW,250,1.0,4.0,55,0.00,,,0.00,,2013-02-21 23:42:00,
2013-02-21 18:52:00,26.0,12.0,30.06,East,101,0.0,3.0,55,0.00,,,0.00,,2013-02-21 23:52:00,
2013-02-21 19:01:00,26.0,12.0,30.06,NE,46,3.0,9.0,56,0.00,,,0.00,,2013-02-22 00:01:00,
2013-02-21 19:11:00,26.0,12.0,30.06,NE,46,3.0,9.0,56,0.00,,,0.00,,2013-02-22 00:11:00,
2013-02-21 19:21:00,25.0,12.0,30.08,NNE,30,1.0,9.0,57,0.00,,,0.00,,2013-02-22 00:21:00,
2013-02-21 19:32:00,25.0,12.0,30.08,NW,326,0.0,3.0,58,0.00,,,0.00,,2013-02-22 00:32:00,
2013-02-21 19:42:00,25.0,12.0,30.08,NW,326,0.0,3.0,58,0.00,,,0.00,,2013-02-22 00:42:00,
2013-02-21 19:52:00,25.0,13.0,30.11,NNE,23,0.0,5.0,59,0.00,,,0.00,,2013-02-22 00:52:00,
2013-02-21 20:01:00,24.0,12.0,30.14,NE,51,1.0,4.0,60,0.00,,,0.00,,2013-02-22 01:01:00,
2013-02-21 20:11:00,24.0,12.0,30.14,NE,51,1.0,4.0,60,0.00,,,0.00,,2013-02-22 01:11:00,
2013-02-21 20:22:00,24.0,12.0,30.14,WNW,301,0.0,3.0,60,0.00,,,0.00,,2013-02-22 01:22:00,
2013-02-21 20:32:00,24.0,12.0,30.16,West,276,2.0,4.0,60,0.00,,,0.00,,2013-02-22 01:32:00,
2013-02-21 20:42:00,24.0,12.0,30.16,West,276,2.0,4.0,60,0.00,,,0.00,,2013-02-22 01:42:00,
2013-02-21 20:51:00,24.0,12.0,30.17,WNW,301,0.0,4.0,60,0.00,,,0.00,,2013-02-22 01:51:00,
2013-02-21 21:02:00,24.0,12.0,30.18,WNW,282,1.0,4.0,60,0.00,,,0.00,,2013-02-22 02:02:00,
2013-02-21 21:11:00,24.0,12.0,30.18,WNW,282,1.0,4.0,60,0.00,,,0.00,,2013-02-22 02:11:00,
2013-02-21 21:21:00,23.0,11.0,30.20,ENE,77,0.0,2.0,60,0.00,,,0.00,,2013-02-22 02:21:00,
2013-02-21 21:32:00,23.0,12.0,30.20,NNW,334,1.0,5.0,61,0.00,,,0.00,,2013-02-22 02:32:00,
2013-02-21 21:42:00,23.0,12.0,30.20,ENE,68,1.0,5.0,62,0.00,,,0.00,,2013-02-22 02:42:00,
2013-02-21 21:52:00,23.0,12.0,30.20,ENE,68,1.0,5.0,62,0.00,,,0.00,,2013-02-22 02:52:00,
2013-02-21 22:02:00,23.0,12.0,30.21,NW,318,0.0,6.0,62,0.00,,,0.00,,2013-02-22 03:02:00,
2013-02-21 22:11:00,22.0,11.0,30.22,North,358,0.0,1.0,62,0.00,,,0.00,,2013-02-22 03:11:00,
2013-02-21 22:21:00,22.0,11.0,30.22,North,358,0.0,1.0,62,0.00,,,0.00,,2013-02-22 03:21:00,
2013-02-21 22:32:00,22.0,11.0,30.22,SSE,153,0.0,1.0,63,0.00,,,0.00,,2013-02-22 03:32:00,
2013-02-21 22:42:00,22.0,11.0,30.22,SSE,153,0.0,1.0,63,0.00,,,0.00,,2013-02-22 03:42:00,
2013-02-21 22:51:00,22.0,11.0,30.22,WSW,249,0.0,1.0,63,0.00,,,0.00,,2013-02-22 03:51:00,
2013-02-21 23:02:00,22.0,12.0,30.22,NNW,338,0.0,2.0,64,0.00,,,0.00,,2013-02-22 04:02:00,
2013-02-21 23:11:00,22.0,12.0,30.23,NNW,338,0.0,2.0,64,0.00,,,0.00,,2013-02-22 04:11:00,
2013-02-21 23:21:00,22.0,12.0,30.23,NNW,338,0.0,2.0,64,0.00,,,0.00,,2013-02-22 04:21:00,
2013-02-21 23:32:00,22.0,12.0,30.23,NNW,338,0.0,2.0,64,0.00,,,0.00,,2013-02-22 04:32:00,
2013-02-21 23:42:00,22.0,12.0,30.23,NNW,338,0.0,2.0,64,0.00,,,0.00,,2013-02-22 04:42:00,
2013-02-21 23:51:00,21.0,11.0,30.24,NNE,17,2.0,5.0,66,0.00,,,0.00,,2013-02-22 04:51:00,